Tracking 29606 objects as of 19-Sep-2024
HD Live streaming from Space Station
objects crossing your sky now

STARLINK-32170

Track STARLINK-32170 now!
10-day predictions
STARLINK-32170 is classified as:


NORAD ID: 60591
Int'l Code: 2024-150J
Perigee: 453.5 km
Apogee: 455.4 km
Inclination: 53.2 °
Period: 93.5 minutes
Semi major axis: 6825 km
RCS: Unknown
Launch date: August 20, 2024
Source: United States (US)
Launch site: AIR FORCE EASTERN TEST RANGE (AFETR)
Your satellite tracking list
Your tracking list is empty




NASA's NSSDC Master Catalog

Two Line Element Set (TLE):
1 60591U 24150J   24262.33802842 -.00003858  00000-0 -86597-4 0  9994
2 60591  53.1593 285.5827 0001395  47.2246 312.8876 15.39588463  5652
Source of the keplerian elements: AFSPC